Puyallup, WA

7:21 PM PST on February 22, 2017 (GMT -0800)
Pierce County - Thun Field

Weather History for KPLU - February, 2014

Change the Weather History Date:

Tuesday, February 4, 2014

  Actual Average (KTCM) Record (KTCM)
Temperature  
Mean Temperature 27 °F -  
Max Temperature 35 °F 46 °F 64 °F (1993)
Min Temperature 19 °F 31 °F 15 °F (1989)
Degree Days  
Heating Degree Days 38    
Moisture  
Dew Point 19 °F    
Average Humidity 76    
Maximum Humidity 100    
Minimum Humidity 44    
Precipitation  
Precipitation 0.00 in - - ()
Sea Level Pressure  
Sea Level Pressure 30.27 in    
Wind  
Wind Speed 1 mph (NE)    
Max Wind Speed 7 mph    
Max Gust Speed -    
Visibility 10 miles    
Events Snow    
Averages and records for this station are not official NWS values.
T = Trace of Precipitation, MM = Missing Value Source: NWS Daily Summary

Daily Weather History Graph

Daily Weather History Graph

Search for Another Location

Airport or City:

Trip Planner

Search our weather history database for the weather conditions in past years. The results will help you decide how hot, cold, wet, or windy it might be!

Date:

Astronomy

Feb. 04, 2014 Rise Set
Actual Time 7:30 AM PST 5:16 PM PST
Civil Twilight 6:57 AM PST 5:48 PM PST
Nautical Twilight 6:21 AM PST 6:25 PM PST
Astronomical Twilight 5:45 AM PST 7:00 PM PST
Moon 9:46 AM PST (2/4) 11:43 PM PST (2/4)
Length of Visible Light 10h 51m
Length of Day
9h 46m
Waxing Crescent, 30% of the Moon is Illuminated
Feb 4
Waxing Crescent
Feb 6
First Quarter
Feb 14
Full
Feb 22
Last Quarter
Mar 1
New

Hourly Weather History & Observations

Time (PST) Temp. Windchill Dew Point Humidity Pressure Visibility Wind Dir Wind Speed Gust Speed Precip Events Conditions
12:15 AM 19.4 °F - 19.4 °F 100% 30.19 in 10.0 mi Calm Calm - N/A   Unknown
12:35 AM 19.4 °F - 19.4 °F 100% 30.19 in 10.0 mi Calm Calm - N/A   Unknown
12:55 AM 21.2 °F - 21.2 °F 100% 30.19 in 10.0 mi Calm Calm - N/A   Unknown
1:15 AM 21.2 °F - 21.2 °F 100% 30.19 in 10.0 mi Calm Calm - N/A   Unknown
1:35 AM 21.2 °F - 21.2 °F 100% 30.19 in 10.0 mi Calm Calm - N/A   Unknown
1:55 AM 21.2 °F - 21.2 °F 100% 30.19 in 10.0 mi Calm Calm - N/A   Unknown
2:15 AM 21.2 °F - 21.2 °F 100% 30.20 in 10.0 mi Calm Calm - N/A   Unknown
2:35 AM 21.2 °F - 21.2 °F 100% 30.20 in 10.0 mi Calm Calm - N/A   Unknown
2:55 AM 21.2 °F - 21.2 °F 100% 30.19 in 10.0 mi Calm Calm - N/A   Unknown
3:15 AM 19.4 °F - 19.4 °F 100% 30.19 in 10.0 mi Calm Calm - N/A   Unknown
3:35 AM 21.2 °F - 21.2 °F 100% 30.20 in 10.0 mi Calm Calm - N/A   Unknown
3:55 AM 21.2 °F - 21.2 °F 100% 30.20 in 10.0 mi Calm Calm - N/A   Unknown
4:15 AM 19.4 °F - 19.4 °F 100% 30.20 in 10.0 mi Calm Calm - N/A   Unknown
4:35 AM 21.2 °F - 21.2 °F 100% 30.21 in 10.0 mi Calm Calm - N/A   Unknown
4:55 AM 23.0 °F - 23.0 °F 100% 30.21 in 10.0 mi Calm Calm - N/A   Unknown
5:15 AM 23.0 °F - 23.0 °F 100% 30.21 in 10.0 mi Calm Calm - N/A   Unknown
5:35 AM 23.0 °F - 23.0 °F 100% 30.22 in 10.0 mi Calm Calm - N/A   Unknown
5:55 AM 24.8 °F - 23.0 °F 93% 30.21 in 10.0 mi Calm Calm - N/A   Unknown
6:15 AM 24.8 °F - 24.8 °F 100% 30.22 in 10.0 mi Calm Calm - N/A   Unknown
6:35 AM 24.8 °F - 24.8 °F 100% 30.22 in 10.0 mi Calm Calm - N/A   Unknown
6:55 AM 24.8 °F - 24.8 °F 100% 30.23 in 10.0 mi Calm Calm - N/A   Unknown
7:15 AM 24.8 °F - 24.8 °F 100% 30.23 in 10.0 mi Calm Calm - N/A   Unknown
7:35 AM 26.6 °F - 24.8 °F 93% 30.23 in 10.0 mi Calm Calm - N/A   Unknown
7:55 AM 26.6 °F - 26.6 °F 100% 30.23 in 10.0 mi Calm Calm - N/A   Unknown
8:15 AM 26.6 °F - 26.6 °F 100% 30.24 in 10.0 mi Calm Calm - N/A   Unknown
8:35 AM 26.6 °F - 26.6 °F 100% 30.24 in 9.0 mi Calm Calm - N/A   Unknown
8:55 AM 26.6 °F - 26.6 °F 100% 30.25 in 10.0 mi Calm Calm - N/A   Unknown
9:15 AM 26.6 °F - 26.6 °F 100% 30.26 in 5.0 mi Calm Calm - N/A Snow Light Snow
9:35 AM 28.4 °F - 26.6 °F 93% 30.26 in 8.0 mi Calm Calm - N/A Snow Light Snow
9:55 AM 28.4 °F - 26.6 °F 93% 30.26 in 2.5 mi Calm Calm - N/A Snow Light Snow
10:15 AM 28.4 °F 24.6 °F 26.6 °F 93% 30.27 in 5.0 mi North 3.5 mph - N/A Snow Light Snow
10:35 AM 30.2 °F - 26.6 °F 86% 30.27 in 10.0 mi Calm Calm - N/A   Unknown
10:55 AM 32.0 °F - 26.6 °F 80% 30.28 in 10.0 mi Calm Calm - N/A   Unknown
11:15 AM 32.0 °F - 26.6 °F 80% 30.28 in 10.0 mi Calm Calm - N/A   Unknown
11:35 AM 32.0 °F 28.7 °F 21.2 °F 64% 30.28 in 10.0 mi NE 3.5 mph - N/A   Unknown
11:55 AM 32.0 °F - 21.2 °F 64% 30.28 in 10.0 mi Calm Calm - N/A   Unknown
12:15 PM 32.0 °F - 21.2 °F 64% 30.28 in 10.0 mi Calm Calm - N/A   Unknown
12:35 PM 32.0 °F - 19.4 °F 60% 30.28 in 10.0 mi Calm Calm - N/A   Unknown
12:55 PM 32.0 °F - 19.4 °F 60% 30.27 in 10.0 mi Calm Calm - N/A   Unknown
1:15 PM 32.0 °F 26.4 °F 17.6 °F 55% 30.27 in 10.0 mi East 5.8 mph - N/A   Unknown
1:35 PM 35.6 °F 29.9 °F 17.6 °F 48% 30.27 in 10.0 mi NNE 6.9 mph - N/A   Unknown
1:55 PM 33.8 °F 29.6 °F 17.6 °F 52% 30.26 in 10.0 mi North 4.6 mph - N/A   Unknown
2:15 PM 33.8 °F 29.6 °F 17.6 °F 52% 30.26 in 10.0 mi NE 4.6 mph - N/A   Unknown
2:35 PM 33.8 °F 29.6 °F 17.6 °F 52% 30.26 in 10.0 mi NE 4.6 mph - N/A   Unknown
2:55 PM 33.8 °F 29.6 °F 17.6 °F 52% 30.26 in 10.0 mi ENE 4.6 mph - N/A   Unknown
3:35 PM 32.0 °F 28.7 °F 15.8 °F 51% 30.27 in 10.0 mi NE 3.5 mph - N/A   Unknown
4:15 PM 32.0 °F 26.4 °F 15.8 °F 51% 30.28 in 10.0 mi NNE 5.8 mph - N/A   Unknown
4:35 PM 32.0 °F 27.5 °F 15.8 °F 51% 30.28 in 10.0 mi NNE 4.6 mph - N/A   Unknown
4:55 PM 32.0 °F 28.7 °F 15.8 °F 51% 30.28 in 10.0 mi NNE 3.5 mph - N/A   Unknown
5:15 PM 32.0 °F 28.7 °F 14.0 °F 48% 30.28 in 10.0 mi NE 3.5 mph - N/A   Unknown
5:35 PM 32.0 °F 27.5 °F 12.2 °F 44% 30.28 in 10.0 mi ENE 4.6 mph - N/A   Unknown
5:55 PM 32.0 °F 28.7 °F 14.0 °F 48% 30.29 in 10.0 mi ENE 3.5 mph - N/A   Unknown
6:15 PM 32.0 °F - 15.8 °F 51% 30.29 in 10.0 mi Calm Calm - N/A   Unknown
6:35 PM 30.2 °F 26.7 °F 15.8 °F 55% 30.30 in 10.0 mi NE 3.5 mph - N/A   Unknown
6:55 PM 30.2 °F - 15.8 °F 55% 30.30 in 10.0 mi Calm Calm - N/A   Unknown
7:15 PM 30.2 °F - 15.8 °F 55% 30.31 in 10.0 mi Calm Calm - N/A   Unknown
7:35 PM 28.4 °F - 15.8 °F 59% 30.31 in 10.0 mi Calm Calm - N/A   Unknown
7:55 PM 28.4 °F - 14.0 °F 55% 30.32 in 10.0 mi Calm Calm - N/A   Unknown
8:15 PM 28.4 °F - 14.0 °F 55% 30.32 in 10.0 mi Calm Calm - N/A   Unknown
8:35 PM 28.4 °F - 14.0 °F 55% 30.33 in 10.0 mi Calm Calm - N/A   Unknown
8:55 PM 28.4 °F 24.6 °F 12.2 °F 51% 30.34 in 10.0 mi NNE 3.5 mph - N/A   Unknown
9:15 PM 28.4 °F - 12.2 °F 51% 30.35 in 10.0 mi Calm Calm - N/A   Unknown
9:35 PM 28.4 °F - 12.2 °F 51% 30.35 in 10.0 mi Calm Calm - N/A   Unknown
9:55 PM 26.6 °F - 10.4 °F 51% 30.36 in 10.0 mi Calm Calm - N/A   Unknown
10:15 PM 26.6 °F - 12.2 °F 55% 30.36 in 10.0 mi Calm Calm - N/A   Unknown
10:35 PM 26.6 °F - 12.2 °F 55% 30.36 in 10.0 mi Calm Calm - N/A   Unknown
10:55 PM 26.6 °F - 14.0 °F 59% 30.37 in 10.0 mi Calm Calm - N/A   Unknown
11:15 PM 24.8 °F - 15.8 °F 69% 30.37 in 10.0 mi Calm Calm - N/A   Unknown
11:35 PM 26.6 °F - 15.8 °F 64% 30.38 in 10.0 mi Calm Calm - N/A   Unknown
11:55 PM 26.6 °F - 15.8 °F 64% 30.38 in 10.0 mi Calm Calm - N/A   Unknown